This is the latest recevied weather packets stored in our database for station/object SP4LIN-15. If no packets are shown the sender has not sent any weather packets the latest 10 day(s).
| Time | Temp. | Humidity | Pressure | Rain* | Wind** | Luminosity | Snow |
|---|---|---|---|---|---|---|---|
| 1777596750 | 1.11° C | 80% | 1018.7 hPa | 0 mm | - | - | - |
| 1777595850 | 1.11° C | 80% | 1018.8 hPa | 0 mm | - | - | - |
| 1777594950 | 1.11° C | 79% | 1018.8 hPa | 0 mm | - | - | - |
| 1777594050 | 1.67° C | 78% | 1019 hPa | 0 mm | - | - | - |
| 1777593150 | 2.22° C | 78% | 1018.9 hPa | 0 mm | - | - | - |
| 1777592250 | 2.22° C | 77% | 1019.1 hPa | 0 mm | - | - | - |
| 1777591350 | 2.22° C | 74% | 1018.9 hPa | 0 mm | - | - | - |
| 1777590450 | 2.78° C | 74% | 1018.9 hPa | 0 mm | - | - | - |
| 1777589550 | 2.78° C | 73% | 1018.9 hPa | 0 mm | - | - | - |
| 1777588650 | 2.78° C | 71% | 1018.9 hPa | 0 mm | - | - | - |
| 1777587750 | 3.33° C | 69% | 1019 hPa | 0 mm | - | - | - |
| 1777586850 | 3.89° C | 69% | 1018.8 hPa | 0 mm | - | - | - |
| 1777585950 | 3.89° C | 68% | 1018.7 hPa | 0 mm | - | - | - |
| 1777585050 | 4.44° C | 67% | 1018.8 hPa | 0 mm | - | - | - |
| 1777584150 | 5° C | 65% | 1018.8 hPa | 0 mm | - | - | - |
| 1777583250 | 5.56° C | 64% | 1018.6 hPa | 0 mm | - | - | - |
| 1777582351 | 6.11° C | 63% | 1018.7 hPa | 0 mm | - | - | - |
| 1777581450 | 6.67° C | 60% | 1018.8 hPa | 0 mm | - | - | - |
| 1777580551 | 7.22° C | 60% | 1018.6 hPa | 0 mm | - | - | - |
| 1777579651 | 7.78° C | 58% | 1018.6 hPa | 0 mm | - | - | - |
| 1777578751 | 8.33° C | 57% | 1018.8 hPa | 0 mm | - | - | - |
| 1777577851 | 8.89° C | 56% | 1018.6 hPa | 0 mm | - | - | - |
| 1777576951 | 8.89° C | 57% | 1018.8 hPa | 0 mm | - | - | - |
| 1777576051 | 8.89° C | 59% | 1018.7 hPa | 0 mm | - | - | - |
| 1777575151 | 8.89° C | 59% | 1018.9 hPa | 0 mm | - | - | - |
* Rain latest hour (hover to see other rain measurements)
** Current wind speed in m/s (hover to see current wind gust speed)